When you browse on this site, cookies collect data to enhance your experience and personalize the content and advertising you see.
Visit our Privacy Policy to learn more. By continuing to use the site, you agree to this use of cookies and data.
  • In Hungary
  • List of Countries
  • For 7 days
  • Water Temperature
  • Weather Map
  • News
  • Weather Widgets
  • user-avatar
    Login

    Hourly Weather Ghazni

    Today, 6 June, Saturday

    Time Temperature Precipitation Wind Pressure Humidity
    00:00 +21°C° 0 mm 8 mps 587 mmHg 25%
    01:00 +20°C° 0 mm 8 mps 587 mmHg 26%
    02:00 +20°C° 0 mm 7 mps 586 mmHg 27%
    03:00 +18°C° 0 mm 7 mps 586 mmHg 28%
    04:00 +18°C° 0 mm 7 mps 586 mmHg 29%
    05:00 +17°C° 0 mm 7 mps 586 mmHg 31%
    06:00 +18°C° 0 mm 7 mps 587 mmHg 28%
    07:00 +21°C° 0 mm 8 mps 587 mmHg 25%
    08:00 +22°C° 0 mm 8 mps 588 mmHg 23%
    09:00 +23°C° 0 mm 8 mps 588 mmHg 20%
    10:00 +26°C° 0 mm 8 mps 589 mmHg 18%
    11:00 +27°C° 0 mm 8 mps 589 mmHg 15%
    12:00 +28°C° 0 mm 8 mps 589 mmHg 14%
    13:00 +29°C° 0 mm 7 mps 589 mmHg 12%
    14:00 +30°C° 0 mm 7 mps 589 mmHg 11%
    15:00 +31°C° 0 mm 8 mps 589 mmHg 11%
    16:00 +31°C° 0 mm 8 mps 588 mmHg 11%
    17:00 +29°C° 0 mm 8 mps 588 mmHg 11%
    18:00 +28°C° 0 mm 8 mps 588 mmHg 14%
    19:00 +26°C° 0 mm 8 mps 588 mmHg 16%
    20:00 +24°C° 0 mm 7 mps 588 mmHg 18%
    21:00 +23°C° 0 mm 7 mps 587 mmHg 19%
    22:00 +22°C° 0 mm 6 mps 587 mmHg 20%
    23:00 +21°C° 0 mm 6 mps 587 mmHg 20%

    Tomorrow, 7 June, Sunday

    Time Temperature Precipitation Wind Pressure Humidity
    00:00 +20°C° 0 mm 6 mps 587 mmHg 20%
    01:00 +19°C° 0 mm 5 mps 587 mmHg 20%
    02:00 +19°C° 0 mm 4 mps 586 mmHg 19%
    03:00 +18°C° 0 mm 4 mps 586 mmHg 19%
    04:00 +17°C° 0 mm 4 mps 586 mmHg 19%
    05:00 +16°C° 0 mm 3 mps 585 mmHg 19%
    06:00 +18°C° 0 mm 3 mps 586 mmHg 18%
    07:00 +19°C° 0 mm 3 mps 587 mmHg 16%
    08:00 +20°C° 0 mm 3 mps 588 mmHg 14%
    09:00 +22°C° 0 mm 3 mps 588 mmHg 13%
    10:00 +24°C° 0 mm 2 mps 589 mmHg 11%
    11:00 +25°C° 0 mm 2 mps 589 mmHg 9%
    12:00 +26°C° 0 mm 2 mps 589 mmHg 9%
    13:00 +27°C° 0 mm 2 mps 589 mmHg 8%
    14:00 +28°C° 0 mm 2 mps 589 mmHg 7%
    15:00 +28°C° 0 mm 2 mps 588 mmHg 7%
    16:00 +29°C° 0 mm 2 mps 588 mmHg 7%
    17:00 +29°C° 0 mm 2 mps 588 mmHg 6%
    18:00 +28°C° 0 mm 2 mps 588 mmHg 8%
    19:00 +27°C° 0 mm 1 mps 587 mmHg 9%
    20:00 +26°C° 0 mm 1 mps 587 mmHg 11%
    21:00 +25°C° 0 mm 1 mps 587 mmHg 12%
    22:00 +24°C° 0 mm 2 mps 587 mmHg 12%
    23:00 +23°C° 0 mm 2 mps 587 mmHg 13%

    Day after tomorrow, 8 June, Monday

    Time Temperature Precipitation Wind Pressure Humidity
    00:00 +22°C° 0 mm 1 mps 586 mmHg 18%
    01:00 +21°C° 0 mm 1 mps 586 mmHg 24%
    02:00 +20°C° 0 mm 1 mps 585 mmHg 29%
    03:00 +20°C° 0 mm 1 mps 585 mmHg 28%
    04:00 +19°C° 0 mm 1 mps 585 mmHg 28%
    05:00 +18°C° 0 mm 2 mps 585 mmHg 27%
    06:00 +19°C° 0 mm 2 mps 586 mmHg 25%
    07:00 +22°C° 0 mm 1 mps 586 mmHg 22%
    08:00 +23°C° 0 mm 1 mps 587 mmHg 20%
    09:00 +24°C° 0 mm 1 mps 587 mmHg 19%
    10:00 +26°C° 0 mm 1 mps 588 mmHg 17%
    11:00 +27°C° 0 mm 1 mps 588 mmHg 16%
    12:00 +28°C° 0 mm 2 mps 588 mmHg 14%
    13:00 +30°C° 0 mm 3 mps 588 mmHg 13%
    14:00 +32°C° 0 mm 4 mps 589 mmHg 11%
    15:00 +32°C° 0 mm 5 mps 589 mmHg 10%
    16:00 +33°C° 0 mm 6 mps 588 mmHg 9%
    17:00 +33°C° 0 mm 7 mps 588 mmHg 8%
    18:00 +32°C° 0 mm 6 mps 588 mmHg 10%
    19:00 +29°C° 0 mm 5 mps 588 mmHg 13%
    20:00 +28°C° 0 mm 5 mps 588 mmHg 15%
    21:00 +27°C° 0 mm 4 mps 587 mmHg 17%
    22:00 +25°C° 0 mm 3 mps 587 mmHg 18%
    23:00 +24°C° 0 mm 2 mps 587 mmHg 20%

    9 June, Tuesday

    Time Temperature Precipitation Wind Pressure Humidity
    00:00 +24°C° 0 mm 2 mps 587 mmHg 23%
    01:00 +23°C° 0 mm 2 mps 586 mmHg 26%
    02:00 +21°C° 0 mm 3 mps 586 mmHg 29%
    03:00 +21°C° 0 mm 3 mps 586 mmHg 30%
    04:00 +20°C° 0 mm 3 mps 585 mmHg 30%
    05:00 +19°C° 0 mm 2 mps 585 mmHg 30%
    06:00 +21°C° 0 mm 2 mps 586 mmHg 28%
    07:00 +23°C° 0 mm 2 mps 587 mmHg 26%
    08:00 +24°C° 0 mm 2 mps 588 mmHg 24%
    09:00 +25°C° 0 mm 2 mps 588 mmHg 23%
    10:00 +26°C° 0 mm 2 mps 588 mmHg 22%
    11:00 +28°C° 0 mm 1 mps 589 mmHg 21%
    12:00 +29°C° 0 mm 2 mps 589 mmHg 17%
    13:00 +30°C° 0 mm 3 mps 589 mmHg 14%
    14:00 +32°C° 0 mm 4 mps 589 mmHg 11%
    15:00 +32°C° 0 mm 4 mps 589 mmHg 10%
    16:00 +33°C° 0 mm 4 mps 589 mmHg 9%
    17:00 +33°C° 0 mm 4 mps 589 mmHg 8%
    18:00 +32°C° 0 mm 5 mps 588 mmHg 9%
    19:00 +29°C° 0 mm 5 mps 588 mmHg 10%
    20:00 +28°C° 0 mm 5 mps 588 mmHg 12%
    21:00 +26°C° 0 mm 5 mps 588 mmHg 16%
    22:00 +25°C° 0 mm 5 mps 587 mmHg 20%
    23:00 +23°C° 0 mm 5 mps 587 mmHg 24%

    10 June, Wednesday

    Time Temperature Precipitation Wind Pressure Humidity
    00:00 +22°C° 0 mm 4 mps 587 mmHg 26%
    01:00 +21°C° 0 mm 4 mps 586 mmHg 28%
    02:00 +20°C° 0 mm 4 mps 586 mmHg 30%
    03:00 +19°C° 0 mm 4 mps 586 mmHg 32%
    04:00 +19°C° 0 mm 4 mps 586 mmHg 34%
    05:00 +18°C° 0 mm 3 mps 586 mmHg 36%
    06:00 +19°C° 0 mm 4 mps 586 mmHg 33%
    07:00 +20°C° 0 mm 4 mps 587 mmHg 30%
    08:00 +21°C° 0 mm 4 mps 588 mmHg 27%
    09:00 +23°C° 0 mm 4 mps 588 mmHg 23%
    10:00 +25°C° 0 mm 3 mps 589 mmHg 19%
    11:00 +27°C° 0 mm 3 mps 589 mmHg 16%
    12:00 +28°C° 0 mm 3 mps 589 mmHg 14%
    13:00 +29°C° 0 mm 2 mps 589 mmHg 13%
    14:00 +30°C° 0 mm 2 mps 589 mmHg 12%
    15:00 +30°C° 0 mm 2 mps 589 mmHg 11%
    16:00 +30°C° 0 mm 3 mps 589 mmHg 10%
    17:00 +31°C° 0 mm 3 mps 588 mmHg 9%
    18:00 +29°C° 0 mm 3 mps 588 mmHg 12%
    19:00 +28°C° 0 mm 3 mps 588 mmHg 15%
    20:00 +27°C° 0 mm 3 mps 588 mmHg 17%
    21:00 +26°C° 0 mm 3 mps 588 mmHg 22%
    22:00 +25°C° 0 mm 3 mps 588 mmHg 26%
    23:00 +24°C° 0 mm 3 mps 588 mmHg 30%

    11 June, Thursday

    Time Temperature Precipitation Wind Pressure Humidity
    00:00 +22°C° 0 mm 3 mps 587 mmHg 30%
    01:00 +23°C° 0 mm 2 mps 587 mmHg 31%
    02:00 +22°C° 0 mm 1 mps 586 mmHg 31%
    03:00 +20°C° 0 mm 2 mps 586 mmHg 30%
    04:00 +20°C° 0 mm 2 mps 586 mmHg 29%
    05:00 +19°C° 0 mm 2 mps 585 mmHg 28%
    06:00 +20°C° 0 mm 2 mps 586 mmHg 26%
    07:00 +21°C° 0 mm 2 mps 587 mmHg 24%
    08:00 +24°C° 0 mm 2 mps 587 mmHg 22%
    09:00 +25°C° 0 mm 2 mps 587 mmHg 22%
    10:00 +26°C° 0 mm 2 mps 588 mmHg 21%
    11:00 +27°C° 0 mm 1 mps 588 mmHg 21%
    12:00 +28°C° 0 mm 2 mps 588 mmHg 18%
    13:00 +30°C° 0 mm 3 mps 588 mmHg 15%
    14:00 +32°C° 0 mm 4 mps 588 mmHg 12%
    15:00 +32°C° 0 mm 5 mps 588 mmHg 11%
    16:00 +32°C° 0 mm 5 mps 588 mmHg 11%
    17:00 +33°C° 0 mm 6 mps 587 mmHg 10%
    18:00 +32°C° 0 mm 6 mps 587 mmHg 10%
    19:00 +29°C° 0 mm 7 mps 587 mmHg 9%
    20:00 +28°C° 0 mm 7 mps 587 mmHg 9%
    21:00 +27°C° 0 mm 6 mps 587 mmHg 10%
    22:00 +26°C° 0 mm 4 mps 587 mmHg 10%
    23:00 +25°C° 0 mm 3 mps 587 mmHg 11%
    Show more